www.pogodaiklimat.ru

Погода и климат >> Архив погоды >> Индонезия >> Jayapura


ПОГОДА в Jayapura

  • Прогноз погоды в Jayapura
  • Монитор погоды в Jayapura
  • Климат города

АРХИВ ПОГОДЫ в Jayapura

Время (UTC), дата Ветер
(напр.,м/с)
 
Видим.   Явления Облачность Т
(С)
Тd
(С)
f
(%)
Тe
(С)
Тes
(С)
Комфортность P
(гПа)
Po
(гПа)
Тmin
(С)
Tmax
(С)
R
(мм)
R24
(мм)
S
(см)
03 14.05 В 4 8000 м мгла 6/3 420 м
[Cu med, cong Ci sp]
+30.6 +25.0 72 +44 +53 опасность
перегрева
1009.7 1009.4
06 14.05 СВ 5 8000 м мгла 6/3 420 м
[Cu med, cong Ci sp]
+31.0 +26.5 77 +47 +50 опасность
перегрева
1007.6 1007.3
09 14.05 штиль 0 8000 м мгла 8/4 400 м
[Cb cap Ac trans Ci sp]
+29.2 +26.3 84 +44 +44 опасность
перегрева
1008.7 1008.4
12 14.05 штиль 0 7000 м мгла 8/3 420 м
[Cu med, cong Ac trans Ci sp]
+28.6 +25.9 85 +43 +43 опасность
перегрева
1011.0 1010.6 +31.8
00 15.05 ЮВ 2 9000 м 6/3 420 м
[Cu med, cong Ac trans Ci sp]
+29.8 +26.2 81 +45 +51 опасность
перегрева
1011.2 1010.9 +26.2
03 15.05 В 2 9000 м 5/3 420 м
[Cu med, cong Ci sp]
+31.2 +25.3 71 +45 +58 опасность
перегрева
1008.6 1008.2
21 15.05 З 2 9000 м осадки на расстоянии {дождь} 6/3 400 м
[Cb cap Ac trans Ci sp]
+26.2 +25.4 95 +38 +38 очень
душно
1009.1 1008.7 5
03 16.05 В 7 8000 м осадки на расстоянии 5/4 400 м
[Cb cap Ac cuf Ci sp]
+31.0 +25.2 71 +45 +48 опасность
перегрева
1008.0 1007.6
06 16.05 СВ 8 8000 м осадки на расстоянии 6/5 400 м
[Cb cap Ac trans Ci sp]
+31.0 +26.5 77 +47 +48 опасность
перегрева
1005.8 1005.5
09 16.05 СВ 4 6000 м осадки на расстоянии 8/5 400 м
[Cb cap Ac As Ci sp]
+29.4 +26.8 86 +46 +46 опасность
перегрева
1006.4 1006.1
12 16.05 штиль 0 5000 м осадки на расстоянии 10/5 400 м
[Cb cap Ac As]
+28.0 +25.9 88 +42 +42 опасность
перегрева
1008.9 1008.6 +31.8
21 16.05 штиль 0 9000 м мгла 5/3 420 м
[Cu med, cong Ac trans Ci sp]
+26.0 +24.4 91 +36 +36 очень
душно
1008.4 1008.1
00 17.05 ЮВ 3 9000 м мгла 5/3 420 м
[Cu med, cong Ci sp]
+30.2 +26.2 79 +46 +52 опасность
перегрева
1009.1 1008.7 +26.0
03 17.05 СВ 4 9000 м осадки на расстоянии 5/4 400 м
[Cb cap Ci sp]
+31.6 +26.3 74 +48 +55 опасность
перегрева
1006.8 1006.4
06 17.05 В 5 8000 м осадки на расстоянии 6/4 400 м
[Cb cap Ci sp]
+31.6 +25.5 70 +46 +48 опасность
перегрева
1004.7 1004.4
09 17.05 штиль 0 6000 м осадки на расстоянии 8/4 400 м
[Cu Sc Ac trans Ci sp]
+29.4 +26.5 84 +45 +45 опасность
перегрева
1006.1 1005.8
12 17.05 штиль 0 5000 м осадки на расстоянии 9/5 400 м
[Cb cap Ac As Ci sp]
+28.8 +26.1 85 +43 +43 опасность
перегрева
1008.3 1008.0 +32.6
21 17.05 З 2 6000 м осадки на расстоянии {дождь} 9/4 400 м
[Cb cap Ac As Ci sp]
+26.0 +25.2 95 +37 +37 очень
душно
1007.6 1007.2 4
00 18.05 ЮВ 4 6000 м мгла 5/3 420 м
[Cu med, cong Ac As Ci sp]
+30.0 +26.0 79 +45 +50 опасность
перегрева
1008.7 1008.3 +26.0 4
03 18.05 СВ 5 8000 м мгла 5/4 400 м
[Cb calv Ci sp]
+31.8 +26.8 75 +49 +56 опасность
перегрева
1006.9 1006.5
06 18.05 В 2 8000 м мгла 8/4 400 м
[Cb calv Ac trans Ci sp]
+30.4 +26.4 79 +46 +49 опасность
перегрева
1005.1 1004.7
09 18.05 СВ 2 8000 м осадки на расстоянии 9/4 400 м
[Cb cap Ac As Ci sp]
+29.2 +26.3 84 +44 +44 опасность
перегрева
1005.9 1005.5
21 18.05 штиль 0 5000 м слабый дождь 9/4 400 м
[Cb cap Ac As]
+26.0 +24.9 94 +37 +37 очень
душно
1008.3 1008.0 2
00 19.05 В 2 6000 м осадки на расстоянии {дождь} 8/4 300 м
[Cb cap Ac As Ci sp]
+28.6 +26.2 87 +43 +48 опасность
перегрева
1009.9 1009.5 +26.0 5
03 19.05 ЮВ 2 5000 м слабый дождь 9/5 400 м
[Cb cap Ac As]
+27.4 +25.5 89 +40 +44 очень
душно
1008.0 1007.6 0.5
06 19.05 ЮВ 3 6000 м осадки на расстоянии {дождь} 9/5 400 м
[Cb cap Ac As Ci sp]
+29.6 +26.4 83 +45 +47 опасность
перегрева
1005.3 1005.6 0.2
12 19.05 З 3 5000 м осадки на расстоянии 9/5 400 м
[Cb cap Ac As Ci sp]
+26.6 +24.7 89 +38 +38 очень
душно
1008.3 1008.6 +30.4
21 19.05 штиль 0 6000 м мгла 6/3 420 м
[Cu med, cong Ci sp]
+25.2 +23.8 92 +34 +35 очень
душно
1009.0 1008.6
00 20.05 Ю 4 7000 м мгла 6/3 420 м
[Cu med, cong Ci sp]
+29.2 +24.9 78 +42 +47 опасность
перегрева
1010.0 1009.6 +24.8 0.7
03 20.05 В 3 8000 м мгла 6/3 420 м
[Cu med, cong Ci sp]
+31.0 +24.2 67 +43 +53 опасность
перегрева
1007.8 1007.5
06 20.05 В 6 8000 м осадки на расстоянии 6/4 400 м
[Cb cap Ci sp]
+31.2 +25.9 73 +46 +48 опасность
перегрева
1006.0 1005.7
09 20.05 штиль 0 6000 м осадки на расстоянии 8/5 400 м
[Cb cap Ac As Ci sp]
+29.4 +25.9 81 +44 +44 опасность
перегрева
1007.1 1006.8
12 20.05 В 4 5000 м осадки на расстоянии 9/5 400 м
[Cb cap Ac As Ci sp]
+28.8 +26.1 85 +43 +43 опасность
перегрева
1009.7 1009.4 +32.2
21 20.05 СЗ 2 6000 м мгла 6/1 420 м
[Cu med, cong Ci sp]
+26.6 +24.4 88 +37 +37 очень
душно
1009.8 1009.4
00 21.05 Ю 3 7000 м мгла 6/3 420 м
[Cu med, cong Ac trans Ci sp]
+30.8 +26.3 77 +47 +52 опасность
перегрева
1010.3 1009.9 +26.4

 

Местоположение метеостанции Jayapura (Индонезия): широта -2.59 долгота 140.71 высота над уровнем моря 3 м.

В архиве по умолчанию представлена погода в Jayapura за последнюю неделю. Архивные данные за месяц целиком и за предыдущие месяцы, начиная с января 2011 года, Вы можете получить, выбрав интересующий диапазон дат из раскрывающегося списка и нажав кнопку "Ввод!".


*Определитесь, кто Вы:
робот инопланетянин человек

Внимание! Время в таблицах - всемирное. Для получения местного времени необходимо прибавить поправку, которая в Jayapura равна 9 ч.

Смотрите также архив погоды в соседних городах и на ближайших метеорологических станциях:

Погода в Sentani Airport (Индонезия) (21 км)
Погода в Sarmi (Индонезия) (238 км)
Погода в Wamena (Индонезия) (256 км)
Погода в Tanah Merah (Индонезия) (393 км)
Погода в Kokonao (Индонезия) (450 км)
Погода в Enarotali (Индонезия) (504 км)
Погода в Serui (Индонезия) (504 км)
Погода в Biak (Индонезия) (535 км)
Погода в Nabire (Индонезия) (585 км)
Погода в Merauke (Индонезия) (655 км)

Пояснения к столбцам:

Ветер - указаны скорость ветра в м/с - средняя за 10 мин, порывы в срок и между сроками (в фигурных скобках) и направление, откуда дует ветер: С - северный, СВ - северо-восточный, В - восточный, ЮВ - юго-восточный, Ю - южный, ЮЗ - юго-западный, З - западный, СЗ - северо-западный.
Видимость - горизонтальная дальность видимости в метрах или километрах. При видимости от 1 до 10 км при отсутствии осадков обычно наблюдается дымка, при ухудшении видимости до 1 км и менее - туман. В сухую погоду видимость может ухудшаться дымом, пылью или мглою.
Явления - указаны атмосферные явления, наблюдавшиеся в срок или в последний час перед сроком; фигурными скобками обозначены явления, наблюдавшиеся между сроками (за 1-3 часа до срока); квадратными скобками обозначены град или гололедные отложения с указанием их диаметра в мм.
Облачность - указаны через наклонную черту общая и нижняя облачность в баллах и высота нижней границы облаков в метрах; квадратными скобками обозначены формы облаков: Ci - перистые, Cs - перисто-слоистые, Cc - перисто-кучевые, Ac - высококучевые, As - высокослоистые, Sc - слоисто-кучевые, Ns - слоисто-дождевые, Cu - кучевые, Cb - кучево-дождевые. Подробнее классификацию облаков см. в Атласе облаков (PDF).
T - Температура воздуха - температура, измеренная на высоте 2 м над землей.
Td - Температура точки росы - температура, при понижении до которой содержащийся в воздухе водяной пар достигнет насыщения.
f - Относительная влажность воздуха - влажноcть воздуха, измеренная на высоте 2 м над землей.
Te - Эффективная температура - температура, которую ощущает одетый по сезону человек в тени. Характеристика душности погоды. При расчете учитывается влияние влажности воздуха и скорости ветра на теплоощущения человека.
Tes - Эффективная температура на солнце - температура, которую ощущает человек, с поправкой на солнечный нагрев. Характеристика знойности погоды. Зависит от высоты солнца над горизонтом, облачности и скорости ветра. Ночью, в пасмурную погоду, а также при ветре 12 м/с и более поправка равна нулю.
P - Атмосферное давление - приведенное к уровню моря атмосферное давление.
Po - Атмосферное давление - измеренное на уровне метеостанции атмосферное давление.
Tmin - Минимальная температура - минимум температуры воздуха на высоте 2 м над землей.
Tmax - Максимальная температура - максимум температуры воздуха на высоте 2 м над землей.
R - Количество осадков - Количество выпавших осадков за период времени, мм. При наведении курсора мыши на число - период времени, за который выпало указанное количество осадков.
R24 - Количество осадков - Количество выпавших осадков за 24 часа, мм.
S - Снежный покров - Высота снежного покрова, см. При наведении курсора мыши на число - состояние снежного покрова и степень покрытия местности в баллах.